DW5479 Weather Reports


time (UTC)temp
F
wind
direction
speed
knots
gust
knots
rain 1hr
in
rain 24hr
in
rain mn
in
humidity
%
barometer
mb
20260905044535 82 147 4.3 9.6 0.00 0.00 0.00 78 1011.8
20260905043051 82 151 5.2 11.3 0.00 0.00 0.00 76 1011.9
20260905041506 83 162 4.3 6.1 0.00 0.00 0.00 74 1011.7
20260905040024 83 149 4.3 7.8 0.00 0.00 0.00 72 1011.6
20260905034535 84 174 3.5 7.8 0.00 0.00 0.00 69 1011.6
20260905033006 84 140 3.5 7.0 0.00 0.00 0.00 66 1011.4
20260905031542 83 181 2.6 6.1 0.00 0.00 0.00 65 1011.2
20260905030005 83 197 0.9 3.5 0.00 0.00 0.00 64 1011.1
20260905024536 84 154 0.0 3.5 0.00 0.00 0.00 64 1010.9
20260905023037 84 166 0.9 3.5 0.00 0.00 0.00 63 1010.8
20260905021550 85 168 0.9 4.3 0.00 0.00 0.00 63 1010.3
20260905020005 85 167 0.9 5.2 0.00 0.00 0.00 63 1010.3
20260905014522 85 160 0.9 3.5 0.00 0.00 0.00 63 1010.2
20260905013054 86 159 1.7 4.3 0.00 0.00 0.00 62 1010.0
20260905011607 86 154 1.7 5.2 0.00 0.00 0.00 61 1009.8
20260905010010 87 148 2.6 6.1 0.00 0.00 0.00 59 1009.6
20260905004540 88 158 1.7 6.1 0.00 0.00 0.00 57 1009.6
20260905003013 89 159 2.6 9.6 0.00 0.00 0.00 53 1009.5
20260905001525 90 159 2.6 6.1 0.00 0.00 0.00 52 1009.2
20260905000045 91 171 2.6 4.3 0.00 0.00 0.00 51 1009.0
20260904234552 91 131 1.7 5.2 0.00 0.00 0.00 51 1009.0
20260904233021 91 156 3.5 7.8 0.00 0.00 0.00 53 1008.8
20260904231536 91 163 2.6 7.8 0.00 0.00 0.00 53 1009.0
20260904230108 92 167 2.6 7.8 0.00 0.00 0.00 53 1009.2
20260904224510 92 152 3.5 7.8 0.00 0.00 0.00 53 1009.1
20260904223029 91 157 2.6 6.1 0.00 0.00 0.00 57 1009.3
20260904221615 89 162 2.6 5.2 0.00 0.00 0.00 59 1009.5
20260904220022 89 164 2.6 6.1 0.00 0.00 0.00 59 1009.8
20260904214548 89 151 1.7 5.2 0.00 0.00 0.00 59 1009.9
20260904213100 90 146 1.7 5.2 0.00 0.00 0.00 56 1010.0
20260904211510 90 129 1.7 5.2 0.00 0.00 0.00 54 1010.1
20260904210030 90 139 1.7 5.2 0.00 0.00 0.00 54 1010.3
20260904204546 91 159 1.7 5.2 0.00 0.00 0.00 53 1010.6
20260904203031 91 153 2.6 5.2 0.00 0.00 0.00 53 1010.6
20260904201556 92 146 1.7 7.0 0.00 0.00 0.00 51 1010.8
20260904200026 91 153 2.6 7.0 0.00 0.00 0.00 53 1010.9
20260904194532 91 160 1.7 7.0 0.00 0.00 0.00 55 1011.1
20260904193004 90 140 1.7 5.2 0.00 0.00 0.00 56 1011.2
20260904191520 90 146 2.6 6.1 0.00 0.00 0.00 57 1011.3
20260904190033 90 148 1.7 5.2 0.00 0.00 0.00 60 1011.6
20260904184557 90 155 0.9 5.2 0.00 0.00 0.00 60 1011.6
20260904183008 89 155 2.6 5.2 0.00 0.00 0.00 61 1011.7
20260904181537 90 136 1.7 3.5 0.00 0.00 0.00 61 1011.8
20260904180054 89 143 2.6 8.7 0.00 0.00 0.00 61 1011.9
20260904174508 89 133 1.7 5.2 0.00 0.00 0.00 62 1012.1
20260904173032 89 163 4.3 8.7 0.00 0.00 0.00 63 1012.4
20260904171502 89 146 2.6 7.0 0.00 0.00 0.00 65 1012.6
20260904170005 88 156 2.6 7.8 0.00 0.00 0.00 67 1012.7
20260904164522 86 141 2.6 7.8 0.00 0.00 0.00 71 1012.8
20260904163049 86 150 2.6 7.8 0.00 0.00 0.00 73 1012.8
20260904161601 86 153 1.7 5.2 0.00 0.00 0.00 73 1012.9
20260904160011 85 148 2.6 6.1 0.00 0.00 0.00 72 1012.8
20260904154527 85 168 1.7 5.2 0.00 0.00 0.00 74 1012.8
20260904153102 84 148 2.6 4.3 0.00 0.00 0.00 76 1012.6
20260904151557 83 134 2.6 5.2 0.00 0.00 0.00 79 1012.5
20260904150014 82 166 2.6 6.1 0.00 0.00 0.00 81 1012.4
20260904144539 82 146 1.7 7.0 0.00 0.00 0.00 82 1012.5
20260904143003 81 143 1.7 4.3 0.00 0.00 0.00 82 1012.5
20260904141520 81 154 2.6 6.1 0.00 0.00 0.00 83 1012.4
20260904140042 81 160 3.5 7.0 0.00 0.00 0.00 84 1012.3
20260904134557 80 169 1.7 5.2 0.00 0.00 0.00 86 1012.4
20260904133009 79 131 0.9 4.3 0.00 0.00 0.00 87 1012.3
20260904131528 78 148 1.7 4.3 0.00 0.00 0.00 88 1012.3
20260904130050 77 154 0.9 4.3 0.00 0.00 0.00 88 1012.1
20260904124605 77 167 0.0 1.7 0.00 0.00 0.00 88 1012.0
20260904123043 76 152 0.0 1.7 0.00 0.00 0.00 89 1011.9
20260904121506 76 152 0.0 0.9 0.00 0.00 0.00 89 1011.8
20260904120044 75 141 0.0 0.9 0.00 0.00 0.00 88 1011.7
20260904114554 75 146 0.0 0.9 0.00 0.00 0.00 88 1011.3
20260904113007 75 141 0.0 0.9 0.00 0.00 0.00 88 1011.3
20260904111525 75 160 0.0 0.9 0.00 0.00 0.00 88 1011.2
20260904110044 75 155 0.0 0.0 0.00 0.00 0.00 88 1011.1
20260904104601 75 160 0.0 0.0 0.00 0.00 0.00 88 1010.9
20260904103014 75 150 0.0 0.0 0.00 0.00 0.00 88 1011.0
20260904101535 75 148 0.0 0.0 0.00 0.00 0.00 88 1011.0
20260904100049 75 174 0.0 0.0 0.00 0.00 0.00 88 1010.9
20260904094517 75 183 0.0 0.0 0.00 0.00 0.00 87 1010.9
20260904093048 75 159 0.0 0.0 0.00 0.00 0.00 87 1010.7
20260904091600 75 153 0.0 0.0 0.00 0.00 0.00 87 1010.6
20260904090033 75 146 0.0 0.0 0.00 0.00 0.00 87 1010.7
20260904084600 75 156 0.0 0.0 0.00 0.00 0.00 87 1010.6
20260904083017 76 140 0.0 0.0 0.00 0.00 0.00 86 1010.6
20260904081535 76 134 0.0 0.0 0.00 0.00 0.00 86 1010.8
20260904080113 77 136 0.0 0.0 0.00 0.00 0.00 85 1010.8
20260904074506 77 127 0.0 0.0 0.00 0.00 0.00 84 1010.9
20260904073024 78 129 0.0 0.9 0.00 0.00 0.00 84 1011.1
20260904071554 79 140 0.0 2.6 0.00 0.00 0.00 83 1011.1
20260904070027 79 153 0.9 3.5 0.00 0.00 0.00 83 1011.2
20260904064540 80 142 1.7 6.1 0.00 0.00 0.00 83 1011.2
20260904063113 80 153 2.6 6.1 0.00 0.00 0.00 82 1011.2
20260904061508 80 150 2.6 7.0 0.00 0.00 0.00 82 1011.4
20260904060028 80 142 3.5 6.1 0.00 0.00 0.00 81 1011.5
20260904054547 81 168 2.6 7.8 0.00 0.00 0.00 81 1011.4
20260904053125 81 148 3.5 7.8 0.00 0.00 0.00 81 1011.2
20260904051514 81 148 5.2 9.6 0.00 0.00 0.00 81 1011.1
20260904050041 81 130 2.6 7.0 0.00 0.00 0.00 80 1011.0